Location: Jabiru
(12.6667°S, 132.8333°E)
Time: 13:24:04
(UTC+09:30)

Envisat - Pass Details

Date: 27 October 2019
Orbit: 764 x 766 km, 98.1° (Epoch: 13 November)

Event Time Altitude Azimuth Distance (km) Brightness Sun altitude
Rises 19:02:01 0° 163° (SSE) 3,244 6.2 -6.6°
Reaches altitude 10° 19:04:22 10° 159° (SSE) 2,313 5.4 -7.1°
Maximum altitude 19:09:24 62° 79° (E) 863 3.0 -8.3°
Drops below altitude 10° 19:14:24 10° 358° (N) 2,293 5.3 -9.5°
Sets 19:16:42 0° 355° (N) 3,213 6.1 -10.0°
